| time (UTC) | temp C | wind direction | speed KPH | gust KPH | rain 1hr cm | rain 24hr cm | rain mn cm | humidity % | barometer mb |
| 20260504000219 | 13 | 265 | 0.0 | 0.0 | 0.00 | 0.00 | 0.00 | 78 | 1013.4 |
| 20260503235718 | 13 | 265 | 0.0 | 0.0 | 0.00 | 0.00 | 0.00 | 77 | 1013.4 |
| 20260503235237 | 14 | 265 | 0.0 | 0.0 | 0.00 | 0.00 | 0.00 | 77 | 1013.4 |
| 20260503234732 | 14 | 265 | 0.0 | 0.0 | 0.00 | 0.00 | 0.00 | 77 | 1013.4 |
| 20260503234217 | 14 | 265 | 0.0 | 0.0 | 0.00 | 0.00 | 0.00 | 77 | 1013.4 |
| 20260503233730 | 14 | 266 | 0.0 | 0.0 | 0.00 | 0.00 | 0.00 | 77 | 1013.4 |
| 20260503233218 | 14 | 266 | 0.0 | 0.0 | 0.00 | 0.00 | 0.00 | 77 | 1013.4 |
| 20260503232724 | 14 | 266 | 0.0 | 0.0 | 0.00 | 0.00 | 0.00 | 76 | 1013.5 |
| 20260503232218 | 14 | 266 | 0.0 | 0.0 | 0.00 | 0.00 | 0.00 | 76 | 1013.4 |
| 20260503231739 | 14 | 266 | 0.0 | 0.0 | 0.00 | 0.00 | 0.00 | 77 | 1013.4 |
| 20260503231242 | 14 | 266 | 0.0 | 0.0 | 0.00 | 0.00 | 0.00 | 76 | 1013.4 |
| 20260503230723 | 14 | 266 | 0.0 | 0.0 | 0.00 | 0.00 | 0.00 | 76 | 1013.5 |
| 20260503230250 | 14 | 266 | 0.0 | 0.0 | 0.00 | 0.00 | 0.00 | 74 | 1013.4 |
| 20260503225724 | 14 | 266 | 0.0 | 0.0 | 0.00 | 0.00 | 0.00 | 74 | 1014.5 |
| 20260503225236 | 14 | 266 | 0.0 | 0.0 | 0.00 | 0.00 | 0.00 | 74 | 1014.4 |
| 20260503224718 | 14 | 266 | 0.0 | 0.0 | 0.00 | 0.00 | 0.00 | 74 | 1014.4 |
| 20260503224304 | 14 | 266 | 0.0 | 0.0 | 0.00 | 0.00 | 0.00 | 74 | 1014.4 |
| 20260503223722 | 15 | 266 | 0.0 | 0.0 | 0.00 | 0.00 | 0.00 | 74 | 1014.4 |
| 20260503223226 | 15 | 266 | 0.0 | 0.0 | 0.00 | 0.00 | 0.00 | 74 | 1014.4 |
| 20260503222727 | 15 | 266 | 0.0 | 0.0 | 0.00 | 0.00 | 0.00 | 74 | 1014.4 |
| 20260503222244 | 15 | 266 | 0.0 | 0.0 | 0.00 | 0.00 | 0.00 | 74 | 1014.4 |
| 20260503221732 | 15 | 266 | 0.0 | 0.0 | 0.00 | 0.00 | 0.00 | 74 | 1014.4 |
| 20260503221259 | 15 | 266 | 0.0 | 0.0 | 0.00 | 0.00 | 0.00 | 74 | 1014.3 |
| 20260503220735 | 15 | 266 | 0.0 | 0.0 | 0.00 | 0.00 | 0.00 | 73 | 1014.5 |
| 20260503220224 | 15 | 265 | 0.0 | 0.0 | 0.00 | 0.00 | 0.00 | 73 | 1014.4 |
| 20260503215717 | 15 | 266 | 0.0 | 0.0 | 0.00 | 0.00 | 0.05 | 73 | 1014.3 |
| 20260503215229 | 15 | 266 | 0.0 | 0.0 | 0.00 | 0.00 | 0.05 | 73 | 1014.3 |
| 20260503214732 | 15 | 266 | 0.0 | 0.0 | 0.00 | 0.00 | 0.05 | 73 | 1014.2 |
| 20260503214230 | 15 | 266 | 0.0 | 0.0 | 0.00 | 0.00 | 0.05 | 73 | 1014.3 |
| 20260503213759 | 15 | 266 | 0.0 | 0.0 | 0.00 | 0.00 | 0.05 | 75 | 1014.4 |
| 20260503213220 | 15 | 266 | 0.0 | 0.0 | 0.00 | 0.00 | 0.05 | 75 | 1014.3 |
| 20260503212749 | 15 | 266 | 0.0 | 0.0 | 0.00 | 0.00 | 0.05 | 74 | 1014.3 |
| 20260503212234 | 16 | 266 | 0.0 | 0.0 | 0.00 | 0.00 | 0.05 | 75 | 1014.2 |
| 20260503211802 | 16 | 266 | 0.0 | 0.0 | 0.00 | 0.00 | 0.05 | 74 | 1014.1 |
| 20260503211228 | 16 | 266 | 0.0 | 0.0 | 0.00 | 0.00 | 0.05 | 74 | 1014.0 |
| 20260503210803 | 16 | 266 | 0.0 | 0.0 | 0.00 | 0.00 | 0.05 | 74 | 1014.0 |
| 20260503210225 | 16 | 266 | 0.0 | 0.0 | 0.00 | 0.00 | 0.05 | 73 | 1013.8 |
| 20260503205725 | 16 | 266 | 0.0 | 0.0 | 0.00 | 0.00 | 0.05 | 73 | 1013.8 |
| 20260503205221 | 16 | 266 | 0.0 | 0.0 | 0.00 | 0.00 | 0.05 | 73 | 1013.8 |
| 20260503204725 | 16 | 266 | 0.0 | 0.0 | 0.00 | 0.00 | 0.05 | 73 | 1013.7 |
| 20260503204244 | 16 | 266 | 0.0 | 0.0 | 0.00 | 0.00 | 0.05 | 73 | 1013.6 |
| 20260503203733 | 16 | 266 | 0.0 | 0.0 | 0.00 | 0.00 | 0.05 | 73 | 1013.5 |
| 20260503203243 | 16 | 266 | 0.0 | 0.0 | 0.00 | 0.00 | 0.05 | 72 | 1013.5 |
| 20260503202716 | 16 | 266 | 0.0 | 0.0 | 0.00 | 0.00 | 0.05 | 73 | 1013.3 |
| 20260503202228 | 16 | 266 | 0.0 | 0.0 | 0.00 | 0.00 | 0.05 | 72 | 1013.3 |
| 20260503201740 | 16 | 266 | 0.0 | 0.0 | 0.00 | 0.00 | 0.05 | 73 | 1013.3 |
| 20260503201227 | 16 | 266 | 0.0 | 0.0 | 0.00 | 0.00 | 0.05 | 73 | 1013.2 |
| 20260503200723 | 16 | 266 | 0.0 | 0.0 | 0.00 | 0.00 | 0.05 | 73 | 1013.1 |
| 20260503200221 | 16 | 266 | 0.0 | 0.0 | 0.00 | 0.00 | 0.05 | 73 | 1012.9 |
| 20260503195723 | 16 | 266 | 0.0 | 0.0 | 0.00 | 0.00 | 0.05 | 72 | 1012.9 |
| 20260503195216 | 17 | 266 | 0.0 | 0.0 | 0.03 | 0.00 | 0.05 | 73 | 1012.9 |
| 20260503194741 | 17 | 266 | 0.0 | 0.0 | 0.03 | 0.00 | 0.05 | 74 | 1012.9 |
| 20260503194243 | 17 | 266 | 0.0 | 0.0 | 0.03 | 0.00 | 0.05 | 73 | 1012.8 |
| 20260503193743 | 17 | 266 | 0.0 | 0.0 | 0.03 | 0.00 | 0.05 | 72 | 1012.8 |
| 20260503193223 | 17 | 266 | 0.0 | 0.0 | 0.03 | 0.00 | 0.05 | 73 | 1012.8 |
| 20260503192755 | 17 | 266 | 0.0 | 0.0 | 0.03 | 0.00 | 0.05 | 72 | 1012.7 |
| 20260503192225 | 17 | 264 | 0.0 | 0.0 | 0.03 | 0.00 | 0.05 | 73 | 1012.6 |
| 20260503191800 | 17 | 264 | 0.0 | 0.0 | 0.03 | 0.00 | 0.05 | 73 | 1012.7 |
| 20260503191245 | 17 | 264 | 0.0 | 0.0 | 0.03 | 0.00 | 0.05 | 72 | 1012.6 |
| 20260503190742 | 17 | 264 | 0.0 | 0.0 | 0.03 | 0.00 | 0.05 | 72 | 1012.7 |
| 20260503190242 | 18 | 264 | 0.0 | 0.0 | 0.03 | 0.00 | 0.05 | 71 | 1012.6 |
| 20260503185719 | 18 | 264 | 0.0 | 0.0 | 0.03 | 0.00 | 0.05 | 69 | 1012.6 |
| 20260503185240 | 18 | 264 | 0.0 | 0.0 | 0.03 | 0.00 | 0.05 | 66 | 1012.5 |
| 20260503184721 | 18 | 267 | 0.0 | 1.6 | 0.00 | 0.00 | 0.05 | 62 | 1012.5 |
| 20260503184220 | 18 | 269 | 0.0 | 1.6 | 0.00 | 0.00 | 0.05 | 61 | 1012.3 |
| 20260503183728 | 18 | 257 | 0.0 | 0.0 | 0.00 | 0.00 | 0.05 | 60 | 1012.4 |
| 20260503183220 | 18 | 257 | 0.0 | 0.0 | 0.00 | 0.00 | 0.05 | 60 | 1012.3 |
| 20260503182723 | 18 | 263 | 0.0 | 3.2 | 0.00 | 0.00 | 0.05 | 60 | 1012.5 |
| 20260503182232 | 19 | 259 | 0.0 | 3.2 | 0.00 | 0.00 | 0.05 | 59 | 1012.4 |
| 20260503181736 | 19 | 251 | 0.0 | 6.4 | 0.00 | 0.00 | 0.05 | 59 | 1012.4 |
| 20260503181226 | 19 | 267 | 1.6 | 8.0 | 0.00 | 0.00 | 0.05 | 58 | 1012.3 |
| 20260503180731 | 19 | 256 | 1.6 | 8.0 | 0.00 | 0.00 | 0.05 | 58 | 1012.3 |
| 20260503180220 | 19 | 240 | 1.6 | 8.0 | 0.00 | 0.00 | 0.05 | 58 | 1012.2 |
| 20260503175737 | 20 | 265 | 1.6 | 6.4 | 0.00 | 0.00 | 0.05 | 57 | 1012.2 |
| 20260503175223 | 20 | 259 | 1.6 | 8.0 | 0.00 | 0.00 | 0.05 | 57 | 1012.3 |
| 20260503174719 | 20 | 257 | 0.0 | 9.7 | 0.00 | 0.00 | 0.05 | 54 | 1012.2 |
| 20260503174223 | 20 | 269 | 3.2 | 9.7 | 0.00 | 0.00 | 0.05 | 55 | 1012.3 |
| 20260503173726 | 19 | 260 | 1.6 | 11.3 | 0.00 | 0.00 | 0.05 | 55 | 1012.3 |
| 20260503173221 | 19 | 263 | 3.2 | 11.3 | 0.00 | 0.00 | 0.05 | 54 | 1012.3 |
| 20260503172724 | 20 | 248 | 1.6 | 11.3 | 0.00 | 0.00 | 0.05 | 53 | 1012.3 |
| 20260503172236 | 20 | 236 | 4.8 | 11.3 | 0.00 | 0.00 | 0.05 | 52 | 1012.3 |
| 20260503171728 | 20 | 251 | 3.2 | 9.7 | 0.00 | 0.00 | 0.05 | 51 | 1012.3 |
| 20260503171232 | 20 | 268 | 3.2 | 16.1 | 0.00 | 0.00 | 0.05 | 51 | 1012.2 |
| 20260503170737 | 21 | 257 | 4.8 | 16.1 | 0.00 | 0.00 | 0.05 | 50 | 1012.2 |
| 20260503170257 | 21 | 239 | 3.2 | 22.5 | 0.00 | 0.00 | 0.05 | 49 | 1012.1 |
| 20260503150717 | 20 | 222 | 8.0 | 17.7 | 0.00 | 0.00 | 0.05 | 60 | 1012.5 |
| 20260503150222 | 20 | 243 | 8.0 | 14.5 | 0.00 | 0.00 | 0.05 | 60 | 1012.6 |
| 20260503140225 | 21 | 232 | 6.4 | 19.3 | 0.00 | 0.00 | 0.05 | 54 | 1013.1 |
| 20260503131219 | 20 | 191 | 1.6 | 12.9 | 0.00 | 0.00 | 0.05 | 57 | 1013.4 |
| 20260503130744 | 20 | 265 | 1.6 | 12.9 | 0.00 | 0.00 | 0.05 | 58 | 1013.5 |
| 20260503130225 | 20 | 267 | 1.6 | 11.3 | 0.00 | 0.00 | 0.05 | 58 | 1013.5 |
| 20260503110718 | 19 | 292 | 6.4 | 17.7 | 0.00 | 0.00 | 0.05 | 59 | 1014.6 |
| 20260503110223 | 19 | 221 | 9.7 | 19.3 | 0.00 | 0.00 | 0.05 | 61 | 1014.7 |
| 20260503100227 | 18 | 246 | 6.4 | 12.9 | 0.00 | 0.00 | 0.05 | 72 | 1015.1 |
| 20260503090224 | 16 | 237 | 3.2 | 14.5 | 0.00 | 0.00 | 0.05 | 79 | 1015.1 |
| 20260503081236 | 16 | 259 | 1.6 | 9.7 | 0.00 | 0.00 | 0.05 | 85 | 1015.1 |
| 20260503080740 | 15 | 255 | 4.8 | 9.7 | 0.00 | 0.00 | 0.05 | 86 | 1015.0 |
| 20260503080239 | 15 | 257 | 4.8 | 8.0 | 0.00 | 0.00 | 0.05 | 86 | 1015.1 |